MDT,Max TemperatureF,Mean TemperatureF,Min TemperatureF,Max Dew PointF,MeanDew PointF,Min DewpointF,Max Humidity, Mean Humidity, Min Humidity, Max Sea Level PressureIn, Mean Sea Level PressureIn, Min Sea Level PressureIn, Max VisibilityMiles, Mean VisibilityMiles, Min VisibilityMiles, Max Wind SpeedMPH, Mean Wind SpeedMPH, Max Gust SpeedMPH,PrecipitationIn, CloudCover, Events, WindDirDegrees
2012-9-1,73,60,47,48,37,19,93,49,13,29.95,29.78,29.58,15,10,9,31,15,39,0.02,3,,266
2012-9-2,73,52,32,40,30,25,89,35,15,29.98,29.87,29.78,15,10,9,33,16,40,0.02,2,,250
2012-9-3,71,56,42,49,35,28,84,40,18,30.01,29.92,29.69,15,10,9,24,14,31,0.00,4,,272
2012-9-4,66,56,46,48,42,36,97,65,32,30.19,30.07,29.82,20,10,9,17,7,,0.08,5,Rain,312
2012-9-5,69,56,42,51,42,34,96,69,28,30.13,30.03,29.87,20,12,9,18,9,23,0.00,5,Rain,290
2012-9-6,68,57,46,48,44,37,93,67,37,30.24,30.09,29.34,20,16,9,21,9,,0.00,5,,276
2012-9-7,78,58,39,49,36,23,93,55,13,30.27,30.12,29.40,15,10,9,17,8,17,0.08,0,,214
2012-9-8,84,60,37,43,34,23,93,49,13,30.28,30.09,29.76,15,10,9,17,9,22,0.00,1,,221
2012-9-9,82,58,34,42,35,30,88,38,14,29.91,29.78,29.57,15,10,9,31,11,39,0.08,4,,230
2012-9-10,57,46,35,42,33,23,84,45,24,29.90,29.70,29.57,20,16,9,50,15,69,0.01,1,,235
2012-9-11,59,50,41,41,22,14,73,37,16,30.20,29.99,29.67,15,11,9,29,15,39,0.00,3,Rain,266
2012-9-12,66,45,24,36,24,18,90,46,17,30.41,30.26,29.90,15,11,9,17,10,30,0.00,2,,235
2012-9-13,80,60,39,40,32,28,93,41,15,30.35,30.19,29.63,15,10,9,17,11,21,0.12,0,,225
2012-9-14,82,59,36,35,31,27,82,36,12,30.19,30.00,29.79,15,11,9,33,14,40,0.00,4,,234
2012-9-15,66,50,34,36,31,25,84,46,21,30.20,30.10,29.92,20,12,9,18,9,,0.00,4,,19
2012-9-16,62,47,32,36,33,28,83,56,32,30.39,30.26,30.08,15,11,9,12,7,17,0.04,4,,42
2012-9-17,75,54,32,37,32,27,87,55,18,30.25,30.11,29.75,15,11,9,15,8,21,0.00,3,,244
2012-9-18,71,55,39,43,34,27,99,48,13,30.14,29.91,29.37,15,11,5,28,12,38,0.16,2,,269
2012-9-19,75,55,35,39,34,28,98,56,17,30.21,30.07,29.58,20,13,5,14,7,18,0.03,4,,250
2012-9-20,77,54,32,39,34,30,94,52,20,30.20,30.11,29.79,20,13,4,12,7,,0.03,3,,232
2012-9-21,77,56,34,43,38,33,87,54,22,30.21,30.12,29.90,20,14,6,10,8,,0.08,0,,204
2012-9-22,82,60,39,41,37,34,81,50,19,30.14,30.05,29.84,20,13,9,18,6,21,0.00,4,,148
2012-9-23,73,56,38,43,38,35,93,62,25,30.19,30.11,29.99,20,13,9,30,11,,0.00,2,,199
2012-9-24,77,55,33,41,39,32,94,60,26,30.13,29.98,29.75,20,15,9,25,8,,0.00,1,,255
2012-9-25,62,50,39,52,45,39,100,69,29,30.10,29.94,29.65,15,12,9,29,10,39,0.03,4,Rain-Thunderstorm,296
2012-9-26,60,50,41,50,46,35,94,81,44,30.17,30.10,29.78,20,14,9,18,11,24,0.01,5,Rain,311
2012-9-27,71,53,35,46,41,36,100,74,27,30.21,30.06,29.41,20,14,3,17,8,,0.01,1,Fog,180
2012-9-28,80,61,42,43,37,29,87,46,14,30.04,29.81,29.17,15,12,9,28,13,24,0.02,3,,220
2012-9-29,68,52,37,41,37,32,82,42,19,29.99,29.86,29.47,20,12,9,22,13,30,0.03,3,,280
2012-9-30,60,46,31,43,39,31,89,65,39,30.31,30.16,29.80,20,12,9,18,8,20,0.08,4,,360